This is the latest recevied weather packets stored in our database for station/object K6GMW. If no packets are shown the sender has not sent any weather packets the latest 10 day(s).
| Time | Temp. | Humidity | Pressure | Rain* | Wind** | Luminosity | Snow |
|---|---|---|---|---|---|---|---|
| 1777311504 | 28.89° C | 70% | 1010.6 hPa | 0 mm | - | 944 W/m² | - |
| 1777311201 | 28.89° C | 70% | 1011.1 hPa | 0 mm | - | 351 W/m² | - |
| 1777310899 | 28.89° C | 69% | 1010.7 hPa | 0 mm | - | 431 W/m² | - |
| 1777310596 | 28.89° C | 71% | 1010.8 hPa | 0 mm | - | 475 W/m² | - |
| 1777310294 | 28.89° C | 69% | 1011 hPa | 0 mm | - | 423 W/m² | - |
| 1777309990 | 28.89° C | 71% | 1011 hPa | 0 mm | - | 882 W/m² | - |
| 1777309689 | 28.33° C | 72% | 1011 hPa | 0 mm | - | 535 W/m² | - |
| 1777309386 | 27.78° C | 74% | 1011.2 hPa | 0 mm | - | 366 W/m² | - |
| 1777309084 | 28.33° C | 73% | 1011 hPa | 0 mm | - | 239 W/m² | - |
| 1777308781 | 28.33° C | 73% | 1011 hPa | 0 mm | - | 1051 W/m² | - |
| 1777308475 | 28.33° C | 72% | 1011.2 hPa | 0 mm | - | 334 W/m² | - |
| 1777308171 | 27.78° C | 76% | 1011.3 hPa | 0 mm | - | 854 W/m² | - |
| 1777307867 | 27.78° C | 76% | 1011.2 hPa | 0 mm | - | 393 W/m² | - |
| 1777307566 | 27.78° C | 77% | 1011.3 hPa | 0 mm | - | 254 W/m² | - |
| 1777307262 | 27.22° C | 77% | 1011.1 hPa | 0 mm | - | 294 W/m² | - |
| 1777306960 | 27.78° C | 76% | 1011.1 hPa | 0 mm | - | 166 W/m² | - |
| 1777306657 | 27.78° C | 75% | 1011 hPa | 0 mm | - | 364 W/m² | - |
| 1777306353 | 27.78° C | 76% | 1011 hPa | 0 mm | - | 377 W/m² | - |
| 1777306048 | 27.78° C | 77% | 1010.8 hPa | 0 mm | - | 458 W/m² | - |
| 1777305745 | 27.78° C | 78% | 1011.1 hPa | 0 mm | - | 1000 W/m² | - |
| 1777305441 | 27.22° C | 77% | 1011.2 hPa | 0 mm | - | 389 W/m² | - |
| 1777305141 | 27.22° C | 78% | 1011.3 hPa | 0 mm | - | 298 W/m² | - |
| 1777304836 | 26.67° C | 79% | 1011.1 hPa | 0 mm | - | 229 W/m² | - |
| 1777304533 | 26.67° C | 79% | 1011.2 hPa | 0 mm | - | 226 W/m² | - |
| 1777304230 | 27.22° C | 79% | 1010.9 hPa | 0 mm | - | 249 W/m² | - |
* Rain latest hour (hover to see other rain measurements)
** Current wind speed in m/s (hover to see current wind gust speed)